Location: Waco, TX
(31.5480°N, 97.1670°W)
Time: 07:53:52
(UTC-06:00)

ISS - Pass Details

Date: 12 January 2018
Orbit: 402 x 407 km, 51.6° (Epoch: 18 January)

Event Time Altitude Azimuth Distance (km) Brightness Sun altitude
Rises 23:42:49 0° 229° (SW) 2,299 - -74.2°
Reaches altitude 10° 23:44:54 10° 232° (SW) 1,445 - -74.6°
Maximum altitude 23:48:07 67° 315° (NW) 437 - -75.1°
Drops below altitude 10° 23:51:21 10° 40° (NE) 1,454 - -75.6°
Sets 23:53:27 0° 43° (NE) 2,317 - -76.0°
